Location: Litvinovka
(48.6667°N, 34.3500°E)
Time: 07:09:30
(UTC+00:00)

Cosmos 1627 Rocket - Pass Details

Date: 18 September 2020
Orbit: 951 x 1003 km, 82.9° (Epoch: 19 October)

Event Time Altitude Azimuth Distance (km) Brightness Sun altitude
Rises 17:57:26 0° 351° (N) 3,730 8.1 -21.2°
Reaches altitude 10° 17:59:59 10° 354° (N) 2,781 7.3 -21.6°
Maximum altitude 18:06:23 73° 79° (E) 1,051 4.5 -22.5°
Enters shadow 18:08:52 40° 154° (SSE) 1,449 5.0 -22.8°
